About KSUZ

The Saline County Regional Airport is a modern facility that opened March 12th, 2007. The airport features a 5001 x 100 ft. runway with a full parallel taxiway, ILS approach, RNAV approaches, and medium intensity runway lights, including strobing runway end identifier lights. KSUZ offers 24-hour self-serve 100LL AV Gas and Jet-A with anti-icing additive at competitive prices. These fuels are available via fuel truck Monday - Friday from 8:00AM to 4:30PM. The airport does not charge ramp fees or landing fees and allows overnight stays for transient aircraft free of charge.

Learn More

Fuel Prices

AVGas $5.40
JET-A $4.90

Current Weather

CLEAR SKIES
Wind: 140° at kts Visibility: Greater than 10 Miles Altimeter: 30.08 inHg Pressure: 1019 hPA Humidity: 93% Temperature: 46°F (8)°C Dewpoint: 46°F (8)°C
Flight Category: VFR METAR Readout: KSUZ 020055Z AUTO 14003KT 10SM CLR 08/07 A3008 RMK A01

Contact Us

Address

1100 Hill Farm Rd.
Bryant, AR 72022

Identifier:

KSUZ